"read_dt","SO2 (ppb)","flags","PMT voltage (V)","lamp voltage (V)","lamp intensity (Hz)","internal temp (C)","react chamber temp (C)","sample flow (l/min)","pres (mmHg)","SO2 bkg (ppb)","SO2 coefficient"
2016-01-08 00:00:00,1678E-3,5C000400,-0724,0832,12087,024.5,045.3,0.262,768.8,01.15,0.508
2016-01-08 00:01:00,1728E-3,5C000400,-0724,0832,12206,024.5,045.4,0.262,768.8,01.15,0.508
2016-01-08 00:02:00,1662E-3,5C000400,-0724,0832,12251,024.5,045.3,0.262,768.8,01.15,0.508
2016-01-08 00:03:00,1666E-3,5C000400,-0724,0832,12132,024.5,045.3,0.262,768.8,01.15,0.508
2016-01-08 00:04:00,1715E-3,5C000400,-0724,0832,12161,024.5,045.3,0.262,768.8,01.15,0.508
2016-01-08 00:05:00,1649E-3,5C000400,-0724,0832,12165,024.5,045.3,0.262,768.8,01.15,0.508
2016-01-08 00:06:00,1767E-3,5C000400,-0724,0833,12222,024.5,045.3,0.262,768.8,01.15,0.508
2016-01-08 00:07:00,1856E-3,5C000400,-0724,0833,12135,024.5,045.4,0.262,768.8,01.15,0.508
2016-01-08 00:08:00,1690E-3,5C000400,-0724,0832,12264,024.5,045.3,0.262,768.9,01.15,0.508
2016-01-08 00:09:00,1780E-3,5C000400,-0724,0832,12271,024.5,045.3,0.262,768.9,01.15,0.508
2016-01-08 00:10:00,1879E-3,5C000400,-0724,0833,12224,024.5,045.3,0.262,768.9,01.15,0.508
2016-01-08 00:11:00,1794E-3,5C000400,-0724,0832,12168,024.5,045.3,0.262,768.9,01.15,0.508
2016-01-08 00:12:00,1812E-3,5C000400,-0724,0832,12213,024.5,045.3,0.262,768.9,01.15,0.508
2016-01-08 00:13:00,1765E-3,5C000400,-0724,0831,12217,024.5,045.3,0.262,768.9,01.15,0.508
2016-01-08 00:14:00,1842E-3,5C000400,-0724,0832,12145,024.5,045.3,0.262,768.8,01.15,0.508
2016-01-08 00:15:00,1702E-3,5C000400,-0724,0832,12163,024.5,045.3,0.262,768.9,01.15,0.508
2016-01-08 00:16:00,1762E-3,5C000400,-0724,0832,12225,024.5,045.3,0.262,768.9,01.15,0.508
2016-01-08 00:17:00,1799E-3,5C000400,-0724,0832,12219,024.5,045.3,0.262,768.9,01.15,0.508
2016-01-08 00:18:00,1614E-3,5C000400,-0724,0831,12200,024.5,045.3,0.262,768.9,01.15,0.508
2016-01-08 00:19:00,1788E-3,5C000400,-0724,0831,12048,024.5,045.3,0.262,768.9,01.15,0.508
2016-01-08 00:20:00,1728E-3,5C000400,-0724,0832,12284,024.5,045.3,0.262,769.0,01.15,0.508
2016-01-08 00:21:00,1784E-3,5C000400,-0724,0832,12186,024.5,045.3,0.262,769.0,01.15,0.508
2016-01-08 00:22:00,1665E-3,5C000400,-0724,0832,12029,024.5,045.4,0.262,769.0,01.15,0.508
2016-01-08 00:23:00,1825E-3,5C000400,-0724,0832,12161,024.5,045.3,0.262,769.0,01.15,0.508
2016-01-08 00:24:00,1867E-3,5C000400,-0724,0832,12279,024.5,045.3,0.262,769.0,01.15,0.508
2016-01-08 00:25:00,1614E-3,5C000400,-0724,0832,12142,024.5,045.3,0.262,769.0,01.15,0.508
2016-01-08 00:26:00,1732E-3,5C000400,-0724,0832,12104,024.5,045.3,0.262,769.0,01.15,0.508
2016-01-08 00:27:00,1795E-3,5C000400,-0724,0832,12016,024.5,045.3,0.262,769.0,01.15,0.508
2016-01-08 00:28:00,1602E-3,5C000400,-0724,0833,12073,024.5,045.3,0.262,768.9,01.15,0.508
2016-01-08 00:29:00,1717E-3,5C000400,-0724,0832,12072,024.5,045.3,0.262,768.9,01.15,0.508
2016-01-08 00:30:00,1760E-3,5C000400,-0724,0833,12208,024.5,045.3,0.262,768.9,01.15,0.508
2016-01-08 00:31:00,1872E-3,5C000400,-0724,0832,12199,024.4,045.3,0.262,768.9,01.15,0.508
2016-01-08 00:32:00,1693E-3,5C000400,-0724,0832,12014,024.5,045.3,0.262,768.9,01.15,0.508
2016-01-08 00:33:00,1819E-3,5C000400,-0724,0832,12164,024.5,045.3,0.262,768.9,01.15,0.508
2016-01-08 00:34:00,1818E-3,5C000400,-0724,0833,12125,024.5,045.3,0.262,768.9,01.15,0.508
2016-01-08 00:35:00,1691E-3,5C000400,-0724,0831,12223,024.5,045.3,0.262,768.9,01.15,0.508
2016-01-08 00:36:00,1678E-3,5C000400,-0724,0832,12220,024.5,045.3,0.262,768.9,01.15,0.508
2016-01-08 00:37:00,1711E-3,5C000400,-0724,0832,12143,024.5,045.3,0.262,768.9,01.15,0.508
2016-01-08 00:38:00,1773E-3,5C000400,-0724,0832,12123,024.4,045.3,0.262,768.9,01.15,0.508
2016-01-08 00:39:00,1784E-3,5C000400,-0724,0831,12073,024.4,045.3,0.262,768.9,01.15,0.508
2016-01-08 00:40:00,1678E-3,5C000400,-0724,0832,12270,024.4,045.3,0.262,768.9,01.15,0.508
2016-01-08 00:41:00,1875E-3,5C000400,-0724,0832,12206,024.4,045.3,0.262,768.9,01.15,0.508
2016-01-08 00:42:00,1730E-3,5C000400,-0724,0832,12269,024.4,045.3,0.262,768.9,01.15,0.508
2016-01-08 00:43:00,1794E-3,5C000400,-0724,0831,12055,024.4,045.4,0.262,768.9,01.15,0.508
2016-01-08 00:44:00,1574E-3,5C000400,-0724,0832,12244,024.4,045.4,0.262,768.9,01.15,0.508
2016-01-08 00:45:00,1780E-3,5C000400,-0724,0831,12163,024.4,045.3,0.262,768.9,01.15,0.508
2016-01-08 00:46:00,1777E-3,5C000400,-0724,0832,12243,024.4,045.3,0.262,768.9,01.15,0.508
2016-01-08 00:47:00,1639E-3,5C000400,-0724,0832,12131,024.4,045.3,0.262,768.8,01.15,0.508
2016-01-08 00:48:00,1588E-3,5C000400,-0724,0832,12064,024.4,045.3,0.262,768.8,01.15,0.508
2016-01-08 00:49:00,1765E-3,5C000400,-0724,0832,12148,024.4,045.3,0.262,768.8,01.15,0.508
2016-01-08 00:50:00,1748E-3,5C000400,-0724,0832,12259,024.4,045.3,0.262,768.8,01.15,0.508
2016-01-08 00:51:00,1696E-3,5C000400,-0724,0832,12221,024.4,045.3,0.262,768.8,01.15,0.508
2016-01-08 00:52:00,1683E-3,5C000400,-0724,0832,12322,024.4,045.3,0.262,768.8,01.15,0.508
2016-01-08 00:53:00,1771E-3,5C000400,-0724,0831,12208,024.4,045.3,0.262,768.8,01.15,0.508
2016-01-08 00:54:00,1690E-3,5C000400,-0724,0833,12183,024.4,045.3,0.262,768.8,01.15,0.508
2016-01-08 00:55:00,1717E-3,5C000400,-0724,0832,12171,024.4,045.3,0.262,768.8,01.15,0.508
2016-01-08 00:56:00,1797E-3,5C000400,-0724,0831,12257,024.4,045.3,0.262,768.8,01.15,0.508
2016-01-08 00:57:00,1709E-3,5C000400,-0724,0832,12223,024.4,045.3,0.262,768.8,01.15,0.508
2016-01-08 00:58:00,1718E-3,5C000400,-0724,0831,12114,024.4,045.3,0.262,768.8,01.15,0.508
2016-01-08 00:59:00,1900E-3,5C000400,-0724,0832,12305,024.4,045.3,0.262,768.8,01.15,0.508
2016-01-08 01:00:00,1845E-3,5C000400,-0724,0832,12159,024.4,045.3,0.262,768.7,01.15,0.508
2016-01-08 01:01:00,1800E-3,5C000400,-0724,0833,12262,024.4,045.3,0.262,768.7,01.15,0.508
2016-01-08 01:02:00,1777E-3,5C000400,-0724,0832,12273,024.4,045.3,0.262,768.7,01.15,0.508
2016-01-08 01:03:00,1684E-3,5C000400,-0724,0831,12089,024.4,045.3,0.262,768.8,01.15,0.508
2016-01-08 01:04:00,1682E-3,5C000400,-0724,0833,12219,024.4,045.3,0.262,768.8,01.15,0.508
2016-01-08 01:05:00,1656E-3,5C000400,-0724,0833,12189,024.4,045.3,0.262,768.8,01.15,0.508
2016-01-08 01:06:00,1837E-3,5C000400,-0724,0831,12141,024.4,045.3,0.262,768.8,01.15,0.508
2016-01-08 01:07:00,1795E-3,5C000400,-0724,0833,12232,024.4,045.3,0.262,768.8,01.15,0.508
2016-01-08 01:08:00,1722E-3,5C000400,-0724,0832,12095,024.3,045.3,0.262,768.9,01.15,0.508
2016-01-08 01:09:00,1795E-3,5C000400,-0724,0831,12067,024.4,045.4,0.262,768.9,01.15,0.508
2016-01-08 01:10:00,1713E-3,5C000400,-0724,0832,12221,024.4,045.3,0.262,768.9,01.15,0.508
2016-01-08 01:11:00,1721E-3,5C000400,-0724,0831,12061,024.4,045.3,0.262,768.9,01.15,0.508
2016-01-08 01:12:00,1858E-3,5C000400,-0724,0832,12128,024.4,045.3,0.262,768.9,01.15,0.508
2016-01-08 01:13:00,1735E-3,5C000400,-0724,0831,12201,024.4,045.3,0.262,768.9,01.15,0.508
2016-01-08 01:14:00,1676E-3,5C000400,-0724,0832,12277,024.4,045.3,0.263,768.8,01.15,0.508
2016-01-08 01:15:00,1690E-3,5C000400,-0724,0832,12217,024.4,045.3,0.263,768.8,01.15,0.508
2016-01-08 01:16:00,1746E-3,5C000400,-0724,0832,12235,024.4,045.3,0.262,768.8,01.15,0.508
2016-01-08 01:17:00,1676E-3,5C000400,-0724,0832,12331,024.3,045.3,0.263,768.8,01.15,0.508
2016-01-08 01:18:00,1743E-3,5C000400,-0724,0832,12211,024.3,045.3,0.262,768.9,01.15,0.508
2016-01-08 01:19:00,1776E-3,5C000400,-0724,0832,12071,024.3,045.3,0.262,768.9,01.15,0.508
2016-01-08 01:20:00,1713E-3,5C000400,-0724,0831,12000,024.4,045.3,0.262,768.9,01.15,0.508
2016-01-08 01:21:00,1760E-3,5C000400,-0724,0832,12116,024.3,045.3,0.262,768.9,01.15,0.508
2016-01-08 01:22:00,1833E-3,5C000400,-0724,0832,12106,024.3,045.3,0.262,768.9,01.15,0.508
2016-01-08 01:23:00,1859E-3,5C000400,-0724,0832,12251,024.3,045.3,0.262,768.9,01.15,0.508
2016-01-08 01:24:00,1834E-3,5C000400,-0724,0832,12208,024.3,045.3,0.262,768.9,01.15,0.508
2016-01-08 01:25:00,1816E-3,5C000400,-0724,0832,12273,024.3,045.3,0.262,768.9,01.15,0.508
2016-01-08 01:26:00,1765E-3,5C000400,-0724,0832,12109,024.3,045.3,0.263,768.9,01.15,0.508
2016-01-08 01:27:00,1790E-3,5C000400,-0724,0832,12048,024.3,045.3,0.262,768.9,01.15,0.508
2016-01-08 01:28:00,1771E-3,5C000400,-0724,0832,12185,024.3,045.3,0.263,768.9,01.15,0.508
2016-01-08 01:29:00,1693E-3,5C000400,-0724,0831,12339,024.3,045.3,0.262,768.9,01.15,0.508
2016-01-08 01:30:00,1805E-3,5C000400,-0724,0831,12210,024.3,045.3,0.263,768.9,01.15,0.508
2016-01-08 01:31:00,1750E-3,5C000400,-0724,0832,12033,024.3,045.3,0.262,768.9,01.15,0.508
2016-01-08 01:32:00,1659E-3,5C000400,-0724,0832,12208,024.3,045.3,0.263,768.9,01.15,0.508
2016-01-08 01:33:00,1771E-3,5C000400,-0724,0832,12205,024.3,045.3,0.262,768.9,01.15,0.508
2016-01-08 01:34:00,1728E-3,5C000400,-0724,0832,12235,024.3,045.3,0.262,768.9,01.15,0.508
2016-01-08 01:35:00,1811E-3,5C000400,-0724,0831,12312,024.3,045.3,0.262,768.9,01.15,0.508
2016-01-08 01:36:00,1780E-3,5C000400,-0724,0831,12308,024.3,045.3,0.262,769.0,01.15,0.508
2016-01-08 01:37:00,1677E-3,5C000400,-0724,0832,12236,024.3,045.3,0.262,769.0,01.15,0.508
2016-01-08 01:38:00,1754E-3,5C000400,-0724,0833,12195,024.3,045.3,0.262,769.0,01.15,0.508
2016-01-08 01:39:00,1735E-3,5C000400,-0724,0832,12359,024.3,045.3,0.262,769.0,01.15,0.508
2016-01-08 01:40:00,1843E-3,5C000400,-0724,0831,12213,024.3,045.3,0.262,769.0,01.15,0.508
2016-01-08 01:41:00,1614E-3,5C000400,-0724,0832,12209,024.3,045.3,0.263,769.0,01.15,0.508
2016-01-08 01:42:00,1919E-3,5C000400,-0724,0831,12028,024.3,045.3,0.262,769.0,01.15,0.508
2016-01-08 01:43:00,1772E-3,5C000400,-0724,0833,12336,024.3,045.3,0.263,769.0,01.15,0.508
2016-01-08 01:44:00,1575E-3,5C000400,-0724,0831,12137,024.3,045.3,0.262,769.0,01.15,0.508
2016-01-08 01:45:00,1795E-3,5C000400,-0724,0832,12221,024.3,045.3,0.263,769.0,01.15,0.508
2016-01-08 01:46:00,1789E-3,5C000400,-0724,0831,11926,024.3,045.3,0.262,769.1,01.15,0.508
2016-01-08 01:47:00,1741E-3,5C000400,-0724,0831,12066,024.3,045.3,0.263,769.1,01.15,0.508
2016-01-08 01:48:00,1681E-3,5C000400,-0724,0831,12083,024.3,045.3,0.262,769.1,01.15,0.508
2016-01-08 01:49:00,1679E-3,5C000400,-0724,0832,12296,024.3,045.3,0.263,769.1,01.15,0.508
2016-01-08 01:50:00,1858E-3,5C000400,-0724,0832,12168,024.2,045.3,0.262,769.1,01.15,0.508
2016-01-08 01:51:00,1721E-3,5C000400,-0724,0831,12228,024.3,045.3,0.262,769.1,01.15,0.508
2016-01-08 01:52:00,1714E-3,5C000400,-0724,0832,12338,024.3,045.3,0.263,769.1,01.15,0.508
2016-01-08 01:53:00,1660E-3,5C000400,-0724,0831,12398,024.3,045.3,0.262,769.1,01.15,0.508
2016-01-08 01:54:00,1827E-3,5C000400,-0724,0832,12083,024.3,045.3,0.263,769.1,01.15,0.508
2016-01-08 01:55:00,1769E-3,5C000400,-0724,0831,12130,024.2,045.3,0.262,769.1,01.15,0.508
2016-01-08 01:56:00,1897E-3,5C000400,-0724,0832,12103,024.2,045.3,0.263,769.1,01.15,0.508
2016-01-08 01:57:00,1793E-3,5C000400,-0724,0832,12180,024.3,045.3,0.262,769.1,01.15,0.508
2016-01-08 01:58:00,1711E-3,5C000400,-0724,0832,12091,024.2,045.3,0.263,769.1,01.15,0.508
2016-01-08 01:59:00,1670E-3,5C000400,-0724,0832,12160,024.2,045.3,0.262,769.1,01.15,0.508
2016-01-08 02:00:00,1717E-3,5C000400,-0724,0831,12200,024.2,045.3,0.262,769.1,01.15,0.508
2016-01-08 02:01:00,1705E-3,5C000400,-0724,0831,12252,024.2,045.3,0.263,769.1,01.15,0.508
2016-01-08 02:02:00,1804E-3,5C000400,-0724,0831,12220,024.2,045.3,0.262,769.1,01.15,0.508
2016-01-08 02:03:00,1693E-3,5C000400,-0724,0832,12116,024.2,045.3,0.263,769.1,01.15,0.508
2016-01-08 02:04:00,1784E-3,5C000400,-0724,0832,12100,024.2,045.3,0.262,769.1,01.15,0.508
2016-01-08 02:05:00,1769E-3,5C000400,-0724,0832,12233,024.2,045.3,0.263,769.1,01.15,0.508
2016-01-08 02:06:00,1689E-3,5C000400,-0724,0832,12039,024.2,045.4,0.262,769.1,01.15,0.508
2016-01-08 02:07:00,1729E-3,5C000400,-0724,0832,12222,024.2,045.3,0.263,769.1,01.15,0.508
2016-01-08 02:08:00,1707E-3,5C000400,-0724,0833,12225,024.2,045.3,0.262,769.1,01.15,0.508
2016-01-08 02:09:00,1660E-3,5C000400,-0724,0831,12062,024.2,045.3,0.263,769.1,01.15,0.508
2016-01-08 02:10:00,1875E-3,5C000400,-0724,0832,12229,024.2,045.3,0.262,769.1,01.15,0.508
2016-01-08 02:11:00,1756E-3,5C000400,-0724,0832,12076,024.2,045.3,0.263,769.1,01.15,0.508
2016-01-08 02:12:00,1790E-3,5C000400,-0724,0832,12237,024.2,045.3,0.263,769.1,01.15,0.508
2016-01-08 02:13:00,1843E-3,5C000400,-0724,0832,12153,024.2,045.3,0.262,769.1,01.15,0.508
2016-01-08 02:14:00,1787E-3,5C000400,-0724,0832,12151,024.2,045.3,0.263,769.1,01.15,0.508
2016-01-08 02:15:00,1693E-3,5C000400,-0724,0831,12352,024.2,045.3,0.263,769.1,01.15,0.508
2016-01-08 02:16:00,1765E-3,5C000400,-0724,0833,12135,024.2,045.3,0.263,769.1,01.15,0.508
2016-01-08 02:17:00,1801E-3,5C000400,-0724,0832,12131,024.2,045.3,0.263,769.1,01.15,0.508
2016-01-08 02:18:00,1763E-3,5C000400,-0724,0832,12216,024.2,045.3,0.262,769.1,01.15,0.508
2016-01-08 02:19:00,1724E-3,5C000400,-0724,0833,12187,024.2,045.3,0.263,769.1,01.15,0.508
2016-01-08 02:20:00,1750E-3,5C000400,-0724,0831,12192,024.2,045.3,0.263,769.1,01.15,0.508
2016-01-08 02:21:00,1830E-3,5C000400,-0724,0832,12160,024.2,045.3,0.263,769.1,01.15,0.508
2016-01-08 02:22:00,1685E-3,5C000400,-0724,0832,12253,024.2,045.3,0.263,769.1,01.15,0.508
2016-01-08 02:23:00,1779E-3,5C000400,-0724,0831,12191,024.2,045.3,0.262,769.1,01.15,0.508
2016-01-08 02:24:00,1716E-3,5C000400,-0724,0832,12253,024.2,045.3,0.263,769.1,01.15,0.508
2016-01-08 02:25:00,1570E-3,5C000400,-0724,0832,12250,024.1,045.3,0.262,769.1,01.15,0.508
2016-01-08 02:26:00,1745E-3,5C000400,-0724,0832,12063,024.1,045.3,0.263,769.1,01.15,0.508
2016-01-08 02:27:00,1729E-3,5C000400,-0724,0832,12233,024.2,045.3,0.263,769.2,01.15,0.508
2016-01-08 02:28:00,1737E-3,5C000400,-0724,0832,12105,024.1,045.3,0.262,769.2,01.15,0.508
2016-01-08 02:29:00,1743E-3,5C000400,-0724,0832,12102,024.2,045.3,0.263,769.1,01.15,0.508
2016-01-08 02:30:00,1697E-3,5C000400,-0724,0832,12182,024.1,045.3,0.262,769.2,01.15,0.508
2016-01-08 02:31:00,1699E-3,5C000400,-0724,0832,12165,024.1,045.3,0.263,769.1,01.15,0.508
2016-01-08 02:32:00,1631E-3,5C000400,-0724,0832,12303,024.1,045.3,0.263,769.1,01.15,0.508
2016-01-08 02:33:00,1722E-3,5C000400,-0724,0832,12138,024.2,045.3,0.263,769.1,01.15,0.508
2016-01-08 02:34:00,1742E-3,5C000400,-0724,0831,12069,024.1,045.4,0.263,769.1,01.15,0.508
2016-01-08 02:35:00,1687E-3,5C000400,-0724,0832,12199,024.1,045.3,0.262,769.2,01.15,0.508
2016-01-08 02:36:00,1700E-3,5C000400,-0724,0832,12104,024.1,045.3,0.263,769.2,01.15,0.508
2016-01-08 02:37:00,1756E-3,5C000400,-0724,0831,12126,024.1,045.3,0.262,769.2,01.15,0.508
2016-01-08 02:38:00,1773E-3,5C000400,-0724,0832,12167,024.1,045.3,0.263,769.2,01.15,0.508
2016-01-08 02:39:00,1624E-3,5C000400,-0724,0832,12203,024.1,045.3,0.263,769.2,01.15,0.508
2016-01-08 02:40:00,1798E-3,5C000400,-0724,0832,12059,024.1,045.3,0.262,769.2,01.15,0.508
2016-01-08 02:41:00,1822E-3,5C000400,-0724,0831,12182,024.1,045.3,0.263,769.2,01.15,0.508
2016-01-08 02:42:00,1748E-3,5C000400,-0724,0832,12216,024.1,045.3,0.262,769.2,01.15,0.508
2016-01-08 02:43:00,1757E-3,5C000400,-0724,0831,12041,024.1,045.4,0.263,769.1,01.15,0.508
2016-01-08 02:44:00,1651E-3,5C000400,-0724,0831,12132,024.1,045.3,0.263,769.1,01.15,0.508
2016-01-08 02:45:00,1764E-3,5C000400,-0724,0832,12277,024.1,045.3,0.262,769.1,01.15,0.508
2016-01-08 02:46:00,1710E-3,5C000400,-0724,0832,12223,024.1,045.3,0.263,769.2,01.15,0.508
2016-01-08 02:47:00,1658E-3,5C000400,-0724,0832,12147,024.1,045.3,0.263,769.2,01.15,0.508
2016-01-08 02:48:00,1873E-3,5C000400,-0724,0832,12101,024.1,045.3,0.263,769.3,01.15,0.508
2016-01-08 02:49:00,1741E-3,5C000400,-0724,0833,12319,024.1,045.3,0.263,769.3,01.15,0.508
2016-01-08 02:50:00,1643E-3,5C000400,-0724,0831,12142,024.1,045.3,0.262,769.3,01.15,0.508
2016-01-08 02:51:00,1740E-3,5C000400,-0724,0831,12114,024.0,045.3,0.263,769.2,01.15,0.508
2016-01-08 02:52:00,1755E-3,5C000400,-0724,0832,12242,024.1,045.3,0.263,769.2,01.15,0.508
2016-01-08 02:53:00,1747E-3,5C000400,-0724,0832,12220,024.1,045.3,0.263,769.2,01.15,0.508
2016-01-08 02:54:00,1727E-3,5C000400,-0724,0832,12061,024.0,045.3,0.263,769.2,01.15,0.508
2016-01-08 02:55:00,1658E-3,5C000400,-0724,0832,12293,024.0,045.3,0.262,769.2,01.15,0.508
2016-01-08 02:56:00,1799E-3,5C000400,-0724,0831,12159,024.0,045.3,0.263,769.2,01.15,0.508
2016-01-08 02:57:00,1744E-3,5C000400,-0724,0832,12162,024.0,045.3,0.263,769.3,01.15,0.508
2016-01-08 02:58:00,1769E-3,5C000400,-0724,0832,12107,024.0,045.3,0.263,769.3,01.15,0.508
2016-01-08 02:59:00,1685E-3,5C000400,-0724,0831,12123,024.0,045.3,0.263,769.3,01.15,0.508
2016-01-08 03:00:00,1674E-3,5C000400,-0724,0832,12199,024.1,045.3,0.262,769.3,01.15,0.508
2016-01-08 03:01:00,1766E-3,5C000400,-0724,0832,12261,024.1,045.3,0.263,769.3,01.15,0.508
2016-01-08 03:02:00,1713E-3,5C000400,-0724,0833,12230,024.0,045.3,0.263,769.3,01.15,0.508
2016-01-08 03:03:00,1628E-3,5C000400,-0724,0831,12190,024.0,045.3,0.263,769.3,01.15,0.508
2016-01-08 03:04:00,1811E-3,5C000400,-0724,0832,12314,024.0,045.3,0.263,769.3,01.15,0.508
2016-01-08 03:05:00,1782E-3,5C000400,-0724,0832,12153,024.0,045.3,0.262,769.3,01.15,0.508
2016-01-08 03:06:00,1670E-3,5C000400,-0724,0832,12131,024.0,045.3,0.263,769.3,01.15,0.508
2016-01-08 03:07:00,1768E-3,5C000400,-0724,0832,12176,024.0,045.3,0.263,769.3,01.15,0.508
2016-01-08 03:08:00,1827E-3,5C000400,-0724,0832,12095,024.0,045.3,0.263,769.3,01.15,0.508
2016-01-08 03:09:00,1899E-3,5C000400,-0724,0832,12256,024.0,045.3,0.263,769.4,01.15,0.508
2016-01-08 03:10:00,1639E-3,5C000400,-0724,0831,12038,024.0,045.3,0.262,769.4,01.15,0.508
2016-01-08 03:11:00,1630E-3,5C000400,-0724,0832,12234,024.0,045.3,0.263,769.4,01.15,0.508
2016-01-08 03:12:00,1748E-3,5C000400,-0724,0833,12152,024.0,045.3,0.263,769.4,01.15,0.508
2016-01-08 03:13:00,1779E-3,5C000400,-0724,0832,12160,024.0,045.3,0.263,769.4,01.15,0.508
2016-01-08 03:14:00,1814E-3,5C000400,-0724,0832,12208,024.0,045.3,0.263,769.3,01.15,0.508
2016-01-08 03:15:00,1816E-3,5C000400,-0724,0831,12230,024.0,045.3,0.263,769.3,01.15,0.508
2016-01-08 03:16:00,1564E-3,5C000400,-0724,0832,12126,024.0,045.3,0.263,769.3,01.15,0.508
2016-01-08 03:17:00,1671E-3,5C000400,-0724,0833,12152,024.0,045.3,0.263,769.3,01.15,0.508
2016-01-08 03:18:00,1803E-3,5C000400,-0724,0832,12177,024.0,045.3,0.263,769.3,01.15,0.508
2016-01-08 03:19:00,1734E-3,5C000400,-0724,0831,12156,024.0,045.3,0.263,769.3,01.15,0.508
2016-01-08 03:20:00,1779E-3,5C000400,-0724,0832,12094,024.0,045.3,0.263,769.3,01.15,0.508
2016-01-08 03:21:00,1682E-3,5C000400,-0724,0832,12114,024.0,045.3,0.263,769.3,01.15,0.508
2016-01-08 03:22:00,1741E-3,5C000400,-0724,0832,12347,024.0,045.3,0.263,769.3,01.15,0.508
2016-01-08 03:23:00,1562E-3,5C000400,-0724,0832,12212,024.0,045.3,0.263,769.3,01.15,0.508
2016-01-08 03:24:00,1727E-3,5C000400,-0724,0832,12169,024.0,045.3,0.263,769.3,01.15,0.508
2016-01-08 03:25:00,1765E-3,5C000400,-0724,0831,12183,024.0,045.3,0.263,769.3,01.15,0.508
2016-01-08 03:26:00,1814E-3,5C000400,-0724,0832,12151,024.0,045.3,0.263,769.3,01.15,0.508
2016-01-08 03:27:00,1741E-3,5C000400,-0724,0831,11932,024.0,045.3,0.263,769.3,01.15,0.508
2016-01-08 03:28:00,1757E-3,5C000400,-0724,0831,12024,024.0,045.3,0.263,769.3,01.15,0.508
2016-01-08 03:29:00,1681E-3,5C000400,-0724,0832,12317,024.0,045.3,0.263,769.4,01.15,0.508
2016-01-08 03:30:00,1734E-3,5C000400,-0724,0833,12142,024.0,045.3,0.263,769.3,01.15,0.508
2016-01-08 03:31:00,1784E-3,5C000400,-0724,0832,12407,023.9,045.3,0.263,769.3,01.15,0.508
2016-01-08 03:32:00,1843E-3,5C000400,-0724,0832,12159,024.0,045.3,0.263,769.3,01.15,0.508
2016-01-08 03:33:00,1654E-3,5C000400,-0724,0832,12167,024.0,045.3,0.262,769.4,01.15,0.508
2016-01-08 03:34:00,1737E-3,5C000400,-0724,0833,11213,024.0,045.3,0.263,769.4,01.15,0.508
2016-01-08 03:35:00,1773E-3,5C000400,-0724,0832,12427,023.9,045.3,0.263,769.4,01.15,0.508
2016-01-08 03:36:00,1686E-3,5C000400,-0724,0833,12242,024.0,045.3,0.263,769.4,01.15,0.508
2016-01-08 03:37:00,1794E-3,5C000400,-0724,0834,12325,024.0,045.3,0.263,769.3,01.15,0.508
2016-01-08 03:38:00,1624E-3,5C000400,-0724,0831,12209,024.0,045.3,0.263,769.4,01.15,0.508
2016-01-08 03:39:00,1706E-3,5C000400,-0724,0831,12298,024.0,045.3,0.263,769.4,01.15,0.508
2016-01-08 03:40:00,1597E-3,5C000400,-0724,0833,12031,024.0,045.3,0.263,769.3,01.15,0.508
2016-01-08 03:41:00,1883E-3,5C000400,-0724,0832,12238,023.9,045.3,0.263,769.3,01.15,0.508
2016-01-08 03:42:00,1666E-3,5C000400,-0724,0832,12185,023.9,045.3,0.263,769.3,01.15,0.508
2016-01-08 03:43:00,1789E-3,5C000400,-0724,0833,12248,023.9,045.3,0.263,769.3,01.15,0.508
2016-01-08 03:44:00,1778E-3,5C000400,-0724,0831,12044,023.9,045.3,0.263,769.3,01.15,0.508
2016-01-08 03:45:00,1640E-3,5C000400,-0724,0833,12253,023.9,045.3,0.263,769.4,01.15,0.508
2016-01-08 03:46:00,1754E-3,5C000400,-0724,0832,12132,023.9,045.3,0.263,769.4,01.15,0.508
2016-01-08 03:47:00,1836E-3,5C000400,-0724,0832,12274,023.9,045.3,0.263,769.4,01.15,0.508
2016-01-08 03:48:00,1683E-3,5C000400,-0724,0831,12228,023.9,045.3,0.263,769.4,01.15,0.508
2016-01-08 03:49:00,1776E-3,5C000400,-0724,0833,12152,023.9,045.3,0.263,769.4,01.15,0.508
2016-01-08 03:50:00,1646E-3,5C000400,-0724,0832,12332,023.9,045.3,0.263,769.5,01.15,0.508
2016-01-08 03:51:00,1690E-3,5C000400,-0724,0831,12178,023.9,045.3,0.263,769.4,01.15,0.508
2016-01-08 03:52:00,1785E-3,5C000400,-0724,0831,12285,023.9,045.3,0.263,769.4,01.15,0.508
2016-01-08 03:53:00,1736E-3,5C000400,-0724,0831,12052,023.9,045.3,0.263,769.4,01.15,0.508
2016-01-08 03:54:00,1662E-3,5C000400,-0724,0831,12140,023.9,045.3,0.263,769.4,01.15,0.508
2016-01-08 03:55:00,1711E-3,5C000400,-0724,0832,12125,023.9,045.3,0.263,769.4,01.15,0.508
2016-01-08 03:56:00,1753E-3,5C000400,-0724,0831,12320,023.9,045.3,0.263,769.4,01.15,0.508
2016-01-08 03:57:00,1730E-3,5C000400,-0724,0831,12303,023.9,045.3,0.263,769.5,01.15,0.508
2016-01-08 03:58:00,1680E-3,5C000400,-0724,0831,12041,023.9,045.3,0.263,769.5,01.15,0.508
2016-01-08 03:59:00,1797E-3,5C000400,-0724,0831,12118,023.9,045.3,0.263,769.4,01.15,0.508
2016-01-08 04:00:00,1793E-3,5C000400,-0724,0831,12175,023.9,045.3,0.263,769.4,01.15,0.508
2016-01-08 04:01:00,1649E-3,5C000400,-0724,0832,12258,023.9,045.3,0.263,769.4,01.15,0.508
2016-01-08 04:02:00,1839E-3,5C000400,-0724,0832,12238,023.9,045.3,0.263,769.4,01.15,0.508
2016-01-08 04:03:00,1777E-3,5C000400,-0724,0831,12100,023.9,045.3,0.263,769.4,01.15,0.508
2016-01-08 04:04:00,1630E-3,5C000400,-0724,0832,12172,023.9,045.3,0.263,769.4,01.15,0.508
2016-01-08 04:05:00,1643E-3,5C000400,-0724,0832,12168,023.9,045.3,0.263,769.5,01.15,0.508
2016-01-08 04:06:00,1738E-3,5C000400,-0724,0832,12218,023.9,045.3,0.263,769.5,01.15,0.508
2016-01-08 04:07:00,1765E-3,5C000400,-0724,0832,12256,023.8,045.3,0.263,769.5,01.15,0.508
2016-01-08 04:08:00,1707E-3,5C000400,-0724,0832,12150,023.9,045.3,0.263,769.5,01.15,0.508
2016-01-08 04:09:00,1793E-3,5C000400,-0724,0832,12143,023.9,045.3,0.263,769.5,01.15,0.508
2016-01-08 04:10:00,1882E-3,5C000400,-0724,0831,12194,023.8,045.3,0.263,769.6,01.15,0.508
2016-01-08 04:11:00,1812E-3,5C000400,-0724,0831,12240,023.8,045.3,0.263,769.5,01.15,0.508
2016-01-08 04:12:00,1722E-3,5C000400,-0724,0831,12187,023.8,045.3,0.263,769.6,01.15,0.508
2016-01-08 04:13:00,1812E-3,5C000400,-0724,0831,12323,023.8,045.3,0.263,769.6,01.15,0.508
2016-01-08 04:14:00,1830E-3,5C000400,-0724,0832,12159,023.8,045.3,0.263,769.6,01.15,0.508
2016-01-08 04:15:00,1877E-3,5C000400,-0724,0831,12030,023.9,045.3,0.264,769.6,01.15,0.508
2016-01-08 04:16:00,1724E-3,5C000400,-0724,0832,12149,023.8,045.3,0.264,769.6,01.15,0.508
2016-01-08 04:17:00,1728E-3,5C000400,-0724,0833,12108,023.8,045.3,0.263,769.6,01.15,0.508
2016-01-08 04:18:00,1862E-3,5C000400,-0724,0832,12083,023.8,045.3,0.263,769.6,01.15,0.508
2016-01-08 04:19:00,1760E-3,5C000400,-0724,0831,12123,023.8,045.3,0.263,769.6,01.15,0.508
2016-01-08 04:20:00,1732E-3,5C000400,-0724,0832,12281,023.8,045.3,0.263,769.6,01.15,0.508